Regional Weather Roundup
Issued by NWS

Home | Current Version | Previous Version | Graphics & Text | Print | Product List | Glossary On
Versions: 1 2 3 4 5 6 7 8 9 10 11 12 13 14 15 16 17 18 19 20 21 22 23 24 25 26 27 28 29 30 31 32 33 34 35 36 37 38 39 40 41 42 43 44 45 46 47 48 49 50
000
ASUS43 KFSD 270210
RWRSD

WEATHER ROUNDUP FOR SOUTH DAKOTA
NATIONAL WEATHER SERVICE SIOUX FALLS SD
900 PM CDT MON JUN 26 2017

NOTE: "FAIR" INDICATES FEW OR NO CLOUDS BELOW 12,000 FEET WITH NO
SIGNIFICANT WEATHER AND/OR OBSTRUCTIONS TO VISIBILITY.


SDZ001>005-009-010-012>017-270300-
NORTHWEST AND NORTH CENTRAL SOUTH DAKOTA

CITY           SKY/WX    TMP DP  RH WIND       PRES   REMARKS
BUFFALO          N/A     73  39  29 SE18      29.92F
FAITH            N/A     69  41  36 SE20      30.03F
MOBRIDGE       CLEAR     66  37  34 SE8       30.05F
$$

SDZ012>016-024>037-041>051-057-063-072>074-270300-
SOUTHWEST AND SOUTH CENTRAL SOUTH DAKOTA

CITY           SKY/WX    TMP DP  RH WIND       PRES   REMARKS
RAPID CTY ARPT CLEAR     74  40  29 SE17      30.02F
PIERRE         CLEAR     66  40  38 SE9       30.07F
CUSTER         CLEAR     67  37  33 VRB7      30.15F
ELLSWORTH AFB  CLEAR     75  40  28 SE20      30.01F
PHILIP         CLEAR     73  39  29 SE10G21   30.04F
PINE RIDGE     CLEAR     72  44  36 E8        30.06F
SPEARFISH      FAIR      73  46  38 E9        30.00F
WINNER         FAIR      66  40  38 SE7       30.11F
$$

SDZ004>011-016>023-039-040-270300-
NORTHEAST SOUTH DAKOTA

CITY           SKY/WX    TMP DP  RH WIND       PRES   REMARKS
ABERDEEN       CLEAR     61  44  53 SE5       30.10F
WATERTOWN      CLEAR     62  40  44 SE3       30.13F
BROOKINGS      CLEAR     64  38  38 E7        30.14F
SISSETON         N/A     67  42  40 SW3       30.10F
$$

SDZ017-020-022-023-036>040-048>070-270300-
SOUTHEAST SOUTH DAKOTA

CITY           SKY/WX    TMP DP  RH WIND       PRES   REMARKS
SIOUX FALLS    PTCLDY    62  47  57 N3        30.13F
HURON          CLEAR     64  42  44 E5        30.11F
CHAMBERLAIN    CLEAR     67  40  38 E6        30.12R
MITCHELL       CLEAR     65  42  43 E6        30.12F
YANKTON        CLEAR     66  43  43 NE3       30.13S
$$

ABBREVIATIONS USED IN REMARKS
   TC - TEMPERATURE IN CELSIUS
  WCI - WIND CHILL INDEX
   HX - HEAT INDEX
  VSB - VISIBILITY




USA.gov is the U.S. government's official web portal to all federal, state and local government web resources and services.